When you browse on this site, cookies collect data to enhance your experience and personalize the content and advertising you see.
Visit our Privacy Policy to learn more. By continuing to use the site, you agree to this use of cookies and data.
  • In Hungary
  • List of Countries
  • For 7 days
  • Water Temperature
  • Weather Map
  • News
  • Weather Widgets
  • user-avatar
    Login

    Hourly Weather Naiham

    Today, 7 December, Saturday

    Time Temperature Precipitation Wind Pressure Humidity
    00:00 +6°C° 0 mm 0 mps 714 mmHg 88%
    01:00 +6°C° 0 mm 0 mps 714 mmHg 89%
    02:00 +6°C° 0 mm 0 mps 714 mmHg 89%
    03:00 +5°C° 0 mm 0 mps 714 mmHg 89%
    04:00 +5°C° 0 mm 0 mps 714 mmHg 89%
    05:00 +5°C° 0 mm 0 mps 715 mmHg 88%
    06:00 +5°C° 0 mm 0 mps 715 mmHg 86%
    07:00 +5°C° 0 mm 0 mps 715 mmHg 84%
    08:00 +9°C° 0 mm 0 mps 716 mmHg 69%
    09:00 +13°C° 0 mm 1 mps 716 mmHg 53%
    10:00 +16°C° 0 mm 1 mps 717 mmHg 38%
    11:00 +18°C° 0 mm 1 mps 716 mmHg 35%
    12:00 +19°C° 0 mm 1 mps 715 mmHg 31%
    13:00 +19°C° 0 mm 1 mps 714 mmHg 28%
    14:00 +19°C° 0 mm 1 mps 714 mmHg 31%
    15:00 +18°C° 0 mm 1 mps 714 mmHg 34%
    16:00 +18°C° 0 mm 1 mps 713 mmHg 37%
    17:00 +14°C° 0 mm 1 mps 713 mmHg 46%
    18:00 +10°C° 0 mm 0 mps 713 mmHg 55%
    19:00 +8°C° 0 mm 0 mps 713 mmHg 65%
    20:00 +7°C° 0 mm 0 mps 714 mmHg 66%
    21:00 +6°C° 0 mm 0 mps 714 mmHg 68%
    22:00 +6°C° 0 mm 0 mps 714 mmHg 69%
    23:00 +6°C° 0 mm 0 mps 714 mmHg 70%

    Tomorrow, 8 December, Sunday

    Time Temperature Precipitation Wind Pressure Humidity
    00:00 +5°C° 0 mm 0 mps 714 mmHg 71%
    01:00 +5°C° 0 mm 0 mps 713 mmHg 71%
    02:00 +4°C° 0 mm 0 mps 713 mmHg 72%
    03:00 +5°C° 0 mm 1 mps 713 mmHg 72%
    04:00 +5°C° 0 mm 1 mps 713 mmHg 72%
    05:00 +5°C° 0 mm 1 mps 714 mmHg 71%
    06:00 +5°C° 0 mm 1 mps 714 mmHg 71%
    07:00 +5°C° 0 mm 1 mps 714 mmHg 70%
    08:00 +8°C° 0 mm 0 mps 715 mmHg 57%
    09:00 +12°C° 0 mm 0 mps 715 mmHg 45%
    10:00 +16°C° 0 mm 0 mps 716 mmHg 33%
    11:00 +18°C° 0 mm 1 mps 715 mmHg 31%
    12:00 +19°C° 0 mm 1 mps 714 mmHg 29%
    13:00 +20°C° 0 mm 1 mps 713 mmHg 26%
    14:00 +19°C° 0 mm 1 mps 713 mmHg 30%
    15:00 +18°C° 0 mm 1 mps 712 mmHg 33%
    16:00 +18°C° 0 mm 1 mps 712 mmHg 36%
    17:00 +14°C° 0 mm 1 mps 712 mmHg 46%
    18:00 +10°C° 0 mm 0 mps 712 mmHg 55%
    19:00 +8°C° 0 mm 0 mps 712 mmHg 64%
    20:00 +7°C° 0 mm 0 mps 712 mmHg 66%
    21:00 +7°C° 0 mm 0 mps 713 mmHg 68%
    22:00 +6°C° 0 mm 0 mps 713 mmHg 70%
    23:00 +6°C° 0 mm 0 mps 713 mmHg 71%

    Day after tomorrow, 9 December, Monday

    Time Temperature Precipitation Wind Pressure Humidity
    00:00 +5°C° 0 mm 0 mps 713 mmHg 72%
    01:00 +6°C° 0 mm 1 mps 712 mmHg 73%
    02:00 +6°C° 0 mm 1 mps 712 mmHg 74%
    03:00 +5°C° 0 mm 1 mps 712 mmHg 74%
    04:00 +5°C° 0 mm 1 mps 712 mmHg 75%
    05:00 +5°C° 0 mm 1 mps 712 mmHg 74%
    06:00 +5°C° 0 mm 1 mps 713 mmHg 73%
    07:00 +6°C° 0 mm 1 mps 713 mmHg 72%
    08:00 +9°C° 0 mm 1 mps 713 mmHg 60%
    09:00 +12°C° 0 mm 0 mps 714 mmHg 47%
    10:00 +16°C° 0 mm 0 mps 714 mmHg 35%
    11:00 +17°C° 0 mm 0 mps 713 mmHg 32%
    12:00 +20°C° 0 mm 1 mps 713 mmHg 30%
    13:00 +21°C° 0 mm 1 mps 712 mmHg 27%
    14:00 +20°C° 0 mm 1 mps 711 mmHg 30%
    15:00 +20°C° 0 mm 1 mps 710 mmHg 34%
    16:00 +19°C° 0 mm 1 mps 710 mmHg 37%
    17:00 +14°C° 0 mm 0 mps 710 mmHg 45%
    18:00 +11°C° 0 mm 0 mps 710 mmHg 53%
    19:00 +9°C° 0 mm 0 mps 710 mmHg 61%
    20:00 +8°C° 0 mm 0 mps 710 mmHg 63%
    21:00 +7°C° 0 mm 0 mps 710 mmHg 65%
    22:00 +7°C° 0 mm 0 mps 710 mmHg 67%
    23:00 +7°C° 0 mm 0 mps 710 mmHg 68%

    10 December, Tuesday

    Time Temperature Precipitation Wind Pressure Humidity
    00:00 +7°C° 0 mm 1 mps 710 mmHg 70%
    01:00 +7°C° 0 mm 1 mps 710 mmHg 71%
    02:00 +7°C° 0 mm 1 mps 710 mmHg 72%
    03:00 +6°C° 0 mm 1 mps 709 mmHg 73%
    04:00 +6°C° 0 mm 1 mps 709 mmHg 74%
    05:00 +6°C° 0 mm 1 mps 710 mmHg 73%
    06:00 +6°C° 0 mm 1 mps 710 mmHg 73%
    07:00 +6°C° 0 mm 1 mps 710 mmHg 72%
    08:00 +9°C° 0 mm 0 mps 711 mmHg 60%
    09:00 +13°C° 0 mm 0 mps 711 mmHg 48%
    10:00 +17°C° 0 mm 0 mps 712 mmHg 37%
    11:00 +18°C° 0 mm 0 mps 711 mmHg 34%
    12:00 +19°C° 0 mm 0 mps 710 mmHg 31%
    13:00 +22°C° 0 mm 1 mps 709 mmHg 28%
    14:00 +21°C° 0 mm 1 mps 709 mmHg 32%
    15:00 +21°C° 0 mm 1 mps 708 mmHg 36%
    16:00 +20°C° 0 mm 1 mps 708 mmHg 40%
    17:00 +16°C° 0 mm 1 mps 708 mmHg 48%
    18:00 +12°C° 0 mm 0 mps 708 mmHg 56%
    19:00 +9°C° 0 mm 0 mps 708 mmHg 64%
    20:00 +9°C° 0 mm 0 mps 708 mmHg 66%
    21:00 +8°C° 0 mm 0 mps 709 mmHg 69%
    22:00 +8°C° 0 mm 0 mps 709 mmHg 71%
    23:00 +7°C° 0 mm 0 mps 709 mmHg 73%

    11 December, Wednesday

    Time Temperature Precipitation Wind Pressure Humidity
    00:00 +7°C° 0 mm 0 mps 709 mmHg 74%
    01:00 +7°C° 0 mm 0 mps 709 mmHg 76%
    02:00 +6°C° 0 mm 0 mps 709 mmHg 77%
    03:00 +6°C° 0 mm 0 mps 709 mmHg 78%
    04:00 +7°C° 0 mm 1 mps 709 mmHg 79%
    05:00 +7°C° 0 mm 1 mps 709 mmHg 78%
    06:00 +7°C° 0 mm 1 mps 710 mmHg 78%
    07:00 +7°C° 0 mm 1 mps 710 mmHg 77%
    08:00 +10°C° 0 mm 0 mps 711 mmHg 64%
    09:00 +14°C° 0 mm 0 mps 711 mmHg 51%
    10:00 +18°C° 0 mm 0 mps 712 mmHg 39%
    11:00 +19°C° 0 mm 0 mps 711 mmHg 36%
    12:00 +21°C° 0 mm 1 mps 710 mmHg 34%
    13:00 +22°C° 0 mm 1 mps 709 mmHg 31%
    14:00 +22°C° 0 mm 1 mps 709 mmHg 35%
    15:00 +21°C° 0 mm 1 mps 709 mmHg 38%
    16:00 +20°C° 0 mm 1 mps 708 mmHg 42%
    17:00 +18°C° 0 mm 1 mps 708 mmHg 50%
    18:00 +13°C° 0 mm 0 mps 708 mmHg 59%
    19:00 +10°C° 0 mm 0 mps 708 mmHg 68%
    20:00 +10°C° 0 mm 0 mps 709 mmHg 70%
    21:00 +9°C° 0 mm 0 mps 709 mmHg 72%
    22:00 +8°C° 0 mm 0 mps 710 mmHg 75%
    23:00 +8°C° 0 mm 0 mps 710 mmHg 76%

    12 December, Thursday

    Time Temperature Precipitation Wind Pressure Humidity
    00:00 +8°C° 0 mm 0 mps 710 mmHg 78%
    01:00 +7°C° 0 mm 0 mps 710 mmHg 79%
    02:00 +8°C° 0 mm 1 mps 710 mmHg 80%
    03:00 +8°C° 0 mm 1 mps 710 mmHg 80%
    04:00 +8°C° 0 mm 1 mps 710 mmHg 81%
    05:00 +8°C° 0 mm 1 mps 710 mmHg 80%
    06:00 +8°C° 0 mm 1 mps 711 mmHg 80%
    07:00 +8°C° 0 mm 1 mps 711 mmHg 79%
    08:00 +11°C° 0 mm 0 mps 711 mmHg 66%
    09:00 +15°C° 0 mm 0 mps 712 mmHg 53%
    10:00 +18°C° 0 mm 0 mps 712 mmHg 40%
    11:00 +19°C° 0 mm 0 mps 712 mmHg 37%
    12:00 +22°C° 0 mm 1 mps 711 mmHg 35%
    13:00 +23°C° 0 mm 1 mps 710 mmHg 32%
    14:00 +22°C° 0 mm 1 mps 710 mmHg 35%
    15:00 +22°C° 0 mm 1 mps 710 mmHg 39%
    16:00 +21°C° 0 mm 1 mps 709 mmHg 42%
    17:00 +18°C° 0 mm 1 mps 709 mmHg 52%
    18:00 +13°C° 0 mm 0 mps 710 mmHg 61%
    19:00 +11°C° 0 mm 0 mps 710 mmHg 70%
    20:00 +10°C° 0 mm 0 mps 710 mmHg 72%
    21:00 +9°C° 0 mm 0 mps 710 mmHg 74%
    22:00 +9°C° 0 mm 0 mps 711 mmHg 76%
    23:00 +8°C° 0 mm 0 mps 711 mmHg 78%
    Show more